Regional Weather Roundup
Issued by NWS

Home | Current Version | Previous Version | Graphics & Text | Print | Product List | Glossary On
Versions: 1 2 3 4 5 6 7 8 9 10 11 12 13 14 15 16 17 18 19 20 21 22 23 24 25 26 27 28 29 30 31 32 33 34 35 36 37 38 39 40 41 42 43 44 45 46 47 48 49 50
000
ASUS43 KMKX 211359
RWRWI

WISCONSIN REGIONAL WEATHER ROUNDUP
NATIONAL WEATHER SERVICE MILWAUKEE/SULLIVAN WI
800 AM CST SAT JAN 21 2017

NOTE: "FAIR" INDICATES FEW OR NO CLOUDS BELOW 12,000 FEET WITH NO
SIGNIFICANT WEATHER AND/OR OBSTRUCTIONS TO VISIBILITY.

WIZ001-002-006>008-014>016-023>028-211500-
NORTHWEST WISCONSIN

CITY           SKY/WX    TMP DP  RH WIND       PRES   REMARKS
SUPERIOR ARPT  CLOUDY    33  33 100 E3        29.51F FOG
ASHLAND        CLOUDY    34  33  96 E3        29.53S
HAYWARD        CLOUDY    35  33  92 E3        29.49S
SIREN          CLOUDY    34  34  99 E3        29.48S FOG
CUMBERLAND     DRZL/FOG  32  32 100 E7        29.45F VSB 1   WCI  26
RICE LAKE      DRIZZLE   34  34 100 E6        29.48F WCI  29
CHETEK         LGT RAIN  34  34 100 E5        29.47F WCI  30
LADYSMITH      DRIZZLE   35  35  99 E7        29.49F WCI  29
EAU CLAIRE     FOG       34  34 100 NE10      29.44F VSB 3/4 WCI  26
MENOMONIE        N/A    N/A N/A N/A MISG        N/A
NEW RICHMOND   CLOUDY    34  34 100 E7        29.45S FOG     WCI  28
OSCEOLA        DRIZZLE   35  35 100 E6        29.47F WCI  30
$$

WIZ003>005-009-010-017-018-211500-
NORTH CENTRAL WISCONSIN

CITY           SKY/WX    TMP DP  RH WIND       PRES   REMARKS
MANITOWISH WTR CLOUDY    32  32 100 SE6       29.51R WCI  27
ARBOR VITAE    CLOUDY    34  33  96 SE7       29.51R FOG     WCI  28
WOODRUFF       CLOUDY    34  33  96 SE7       29.51R FOG     WCI  28
RHINELANDER    CLOUDY    34  34 100 SE12      29.52S FOG     WCI  25
EAGLE RIVER    CLOUDY    33  33 100 SE6       29.52S FOG     WCI  27
LAND O LAKES   CLOUDY    33  33 100 E5        29.52F FOG     WCI  29
PHILLIPS       CLOUDY    33  33 100 E6        29.49F WCI  27
TOMAHAWK       CLOUDY    33  32  96 E3        29.51S FOG
MEDFORD        FOG       33  32  99 E10       29.47F VSB 1/2 WCI  24
MERRILL        FOG       33  33 100 E7          N/A  VSB 1/2 WCI  27
$$

WIZ029-030-035-036-043>047-211500-
CENTRAL WISCONSIN

CITY           SKY/WX    TMP DP  RH WIND       PRES   REMARKS
WAUSAU         FOG       33  33 100 E9        29.48F VSB 1/2 WCI  25
MOSINEE        FOG       34  34 100 E10       29.49F VSB 1/4 WCI  26
MARSHFIELD     FOG       34  33  96 E9        29.46S VSB 1/4 WCI  27
STEVENS POINT  FOG       32  32 100 E10       29.49F VSB 3/4 WCI  24
WAUPACA        CLOUDY    37  35  95 CALM      29.52F FOG
WAUTOMA        FOG       35  35 100 E8        29.50S VSB 1/4 WCI  29
WISC RAPIDS    FOG       34  34 100 E13       29.48F VSB 1/4 WCI  25
CAMP DOUGLAS   FOG       36  34  93 E8        29.45F VSB 1/4 WCI  29
$$

WIZ011>013-019>022-031-037>040-048>050-211500-
NORTHEAST WISCONSIN

CITY           SKY/WX    TMP DP  RH WIND       PRES   REMARKS
ANTIGO         FOG       32  32 100 E9        29.52S VSB 1/4 WCI  24
SHAWANO        FOG       35  34  96 E6        29.55F VSB 1   WCI  30
OCONTO         CLOUDY    34  34  99 NE5       29.57S WCI  30
STURGEON BAY   MIX PCPN  36  36 100 E8        29.58S VSB 1   WCI  30
GREEN BAY      FOG       36  36 100 NE7       29.55S VSB 1/4 WCI  30
MANITOWOC      FOG       37  36  93 MISG      29.56S VSB 1/4
APPLETON       FOG       36  36 100 E6        29.52R VSB 1/4 WCI  31
CLINTONVILLE   CLOUDY    34  34 100 NE5       29.54S FOG     WCI  30
OSHKOSH        FOG       35  34  96 E6        29.51S VSB<1/4 WCI  30
$$

WIZ032>034-041-042-053>061-211500-
SOUTHWEST WISCONSIN

CITY           SKY/WX    TMP DP  RH WIND       PRES   REMARKS
LA CROSSE      LGT RAIN  39  35  86 CALM      29.43F FOG
SPARTA         DRIZZLE   34  34 100 E6        29.46S WCI  29
VIROQUA        CLOUDY    36  36 100 SE12      29.42S VSB<1/4 WCI  28
BOSCOBEL       FOG       37  36  96 E3        29.45F VSB 3/4
PRAIRIE DU CHI FOG       36  35  96 CALM      29.43F VSB 1
PLATTEVILLE    CLOUDY    38  38 100 E8        29.44S VSB 1/4 WCI  32
$$

WIZ056-057-062-063-064-067-068-211500-
SOUTH CENTRAL WISCONSIN

CITY           SKY/WX    TMP DP  RH WIND       PRES   REMARKS
REEDSBURG      FOG       35  35 100 E5        29.46F VSB 1/2 WCI  31
BARABOO/DELLS  FOG       35  35 100 E7        29.46S VSB<1/4 WCI  29
LONE ROCK      NOT AVBL
MINERAL POINT  FOG       41  41 100 SE8       29.44S VSB<1/4
MADISON        DRZL/FOG  38  38 100 SE6       29.48S VSB 1/4 WCI  33
MIDDLETON      CLOUDY    38  38 100 E3        29.47F VSB<1/4
WATERTOWN      FOG       39  39 100 E7        29.49S VSB 1   WCI  34
MONROE         FOG       41  41 100 SE8       29.45S VSB<1/4
JANESVILLE     NOT AVBL
$$

WIZ051-052-058>065-066-070>072-211500-
SOUTHEAST WISCONSIN

CITY           SKY/WX    TMP DP  RH WIND       PRES   REMARKS
MILWAUKEE      FOG       42  40  92 SE5       29.52S VSB 1/8
WAUKESHA       FOG       37  37 100 E5        29.52F VSB 1/8 WCI  34
MILWAUKEE/TIMM FOG       37  36  93 CALM      29.53S VSB 1/4
RACINE         FOG       41  40  96 S7        29.54R VSB 1/4
KENOSHA        FOG       44  43  96 SE6       29.52S VSB 1
FOND DU LAC    CLOUDY    38  36  92 SE5       29.51S FOG     WCI  34
SHEBOYGAN      FOG       36  35  96 NE5       29.54S VSB<1/4 WCI  32
WEST BEND      SNOW      36  36 100 CALM      29.52S VSB<1/4
JUNEAU         FOG       37  37 100 E9        29.50S VSB 1/4 WCI  31
$$

LSZ147-162-211500-
LAKE SUPERIOR

STATION/POSITION TIME  TEMP    WIND        PRES    WAVE
                       AIR SEA DIR/SP/G            HT/PER
                 (UTC) (F)     (DEG/KT/KT) (MB)    (FT/S)
DEVILS ISLAND    1300   34     110/  6/  8 1001.4F
PORT WING        1340   33      40/  6/  8  999.7F
SAXON HARBOR     1330   33        CALM     1000.0F
$$

LMZ867-665-643>646-211500-
LAKE MICHIGAN

STATION/POSITION TIME  TEMP    WIND        PRES    WAVE
                       AIR SEA DIR/SP/G            HT/PER
                 (UTC) (F)     (DEG/KT/KT) (MB)    (FT/S)
NORTHPORT PIER   1330   34      CALM  /  4 1002.7S
SISTER BAY       1305   35      70/  2/  5   N/A
ALGOMA LAKESHORE 1239           70/  8/  9   N/A
KEWAUNEE LAKESHO 1330   36      60/  3/  7 1000.7F
SHEBOYGAN LAKESH 1300   37      20/  5/  5 1000.7F
PORT WASHINGTON  1340   39      30/  4/  4 1001.4S
KENOSHA   LAKESH 1300   39     160/  8/  8 1000.3
$$

TC  - TEMPERATURE IN CELSIUS
VSB - VISIBILITY IN STATUTE MILES
WCI - WIND CHILL INDEX
HX  - HEAT INDEX





USA.gov is the U.S. government's official web portal to all federal, state and local government web resources and services.